Columbia / Mount Pleasant, TN

3:19 AM CDT on March 27, 2017 (GMT -0500)
Maury County

Weather History for KMRC - February, 2014

Change the Weather History Date:

Sunday, February 9, 2014

  Actual Average (KBNA) Record (KBNA)
Temperature  
Mean Temperature 34 °F -  
Max Temperature 39 °F 46 °F 73 °F (1965)
Min Temperature 30 °F 24 °F -5 °F (1971)
Degree Days  
Heating Degree Days 30    
Moisture  
Dew Point 36 °F    
Average Humidity 100    
Maximum Humidity 100    
Minimum Humidity 93    
Precipitation  
Precipitation 0.00 in - - ()
Sea Level Pressure  
Sea Level Pressure 30.13 in    
Wind  
Wind Speed 2 mph (NNW)    
Max Wind Speed 9 mph    
Max Gust Speed -    
Visibility 5 miles    
Events      
Averages and records for this station are not official NWS values.
T = Trace of Precipitation, MM = Missing Value Source: NWS Daily Summary

Daily Weather History Graph

Daily Weather History Graph

Search for Another Location

Airport or City:

Trip Planner

Search our weather history database for the weather conditions in past years. The results will help you decide how hot, cold, wet, or windy it might be!

Date:

Astronomy

Feb. 09, 2014 Rise Set
Actual Time 6:41 AM CST 5:24 PM CST
Civil Twilight 6:15 AM CST 5:51 PM CST
Nautical Twilight 5:45 AM CST 6:21 PM CST
Astronomical Twilight 5:15 AM CST 6:51 PM CST
Moon 1:08 PM CST (2/9) 2:42 AM CST (2/9)
Length of Visible Light 11h 35m
Length of Day
10h 43m
Waxing Gibbous, 77% of the Moon is Illuminated
Feb 9
Waxing Gibbous
Feb 14
Full
Feb 22
Last Quarter
Mar 1
New
Mar 8
First Quarter

Hourly Weather History & Observations

Time (CST) Temp. Windchill Dew Point Humidity Pressure Visibility Wind Dir Wind Speed Gust Speed Precip Events Conditions
12:35 AM 35.6 °F 32.8 °F 35.6 °F 100% 30.11 in 10.0 mi SE 3.5 mph - N/A   Overcast
12:55 AM 37.4 °F - 35.6 °F 93% 30.12 in 10.0 mi Calm Calm - N/A   Overcast
1:15 AM 37.4 °F - 37.4 °F 100% 30.12 in 10.0 mi Calm Calm - N/A   Overcast
1:35 AM 35.6 °F - 35.6 °F 100% 30.11 in 10.0 mi Calm Calm - N/A   Overcast
1:55 AM 37.4 °F - 37.4 °F 100% 30.12 in 10.0 mi Calm Calm - N/A   Overcast
2:15 AM 37.4 °F - 35.6 °F 93% 30.12 in 10.0 mi Calm Calm - N/A   Overcast
2:35 AM 35.6 °F - 35.6 °F 100% 30.11 in 10.0 mi Calm Calm - N/A   Overcast
2:55 AM 35.6 °F - 35.6 °F 100% 30.09 in 9.0 mi Calm Calm - N/A   Overcast
3:15 AM 35.6 °F - 35.6 °F 100% 30.08 in 8.0 mi Calm Calm - N/A   Overcast
3:35 AM 35.6 °F 32.8 °F 35.6 °F 100% 30.08 in 10.0 mi SSE 3.5 mph - N/A   Mostly Cloudy
3:55 AM 37.4 °F - 35.6 °F 93% 30.08 in 10.0 mi Calm Calm - N/A   Mostly Cloudy
4:15 AM 35.6 °F - 35.6 °F 100% 30.09 in 8.0 mi Calm Calm - N/A   Overcast
4:35 AM 35.6 °F - 35.6 °F 100% 30.10 in 7.0 mi Calm Calm - N/A   Overcast
4:55 AM 35.6 °F - 35.6 °F 100% 30.08 in 7.0 mi Calm Calm - N/A   Overcast
5:15 AM 35.6 °F - 35.6 °F 100% 30.09 in 6.0 mi Calm Calm - N/A   Overcast
5:35 AM 35.6 °F - 35.6 °F 100% 30.10 in 7.0 mi Calm Calm - N/A   Overcast
5:55 AM 35.6 °F - 35.6 °F 100% 30.11 in 7.0 mi Calm Calm - N/A   Overcast
6:15 AM 35.6 °F - 35.6 °F 100% 30.11 in 4.0 mi Calm Calm - N/A   Overcast
6:35 AM 37.4 °F - 37.4 °F 100% 30.12 in 5.0 mi Calm Calm - N/A   Overcast
6:55 AM 37.4 °F 33.8 °F 37.4 °F 100% 30.12 in 4.0 mi SW 4.6 mph - N/A   Overcast
7:15 AM 37.4 °F 33.8 °F 37.4 °F 100% 30.13 in 3.0 mi West 4.6 mph - N/A   Overcast
7:35 AM 37.4 °F - 37.4 °F 100% 30.14 in 3.0 mi Calm Calm - N/A   Overcast
7:55 AM 37.4 °F - 37.4 °F 100% 30.13 in 4.0 mi Calm Calm - N/A   Overcast
8:15 AM 37.4 °F 34.9 °F 37.4 °F 100% 30.13 in 3.0 mi SW 3.5 mph - N/A   Overcast
8:35 AM 37.4 °F 34.9 °F 37.4 °F 100% 30.14 in 5.0 mi WSW 3.5 mph - N/A   Overcast
8:55 AM 39.2 °F 37.0 °F 39.2 °F 100% 30.13 in 5.0 mi SSW 3.5 mph - N/A   Overcast
9:15 AM 39.2 °F - 39.2 °F 100% 30.12 in 7.0 mi Calm Calm - N/A   Overcast
9:35 AM 39.2 °F 37.0 °F 39.2 °F 100% 30.12 in 10.0 mi SW 3.5 mph - N/A   Overcast
9:55 AM 39.2 °F 35.9 °F 39.2 °F 100% 30.14 in 10.0 mi West 4.6 mph - N/A   Overcast
10:15 AM 39.2 °F 37.0 °F 39.2 °F 100% 30.13 in 10.0 mi West 3.5 mph - N/A   Overcast
10:35 AM 39.2 °F 35.9 °F 39.2 °F 100% 30.13 in 10.0 mi WNW 4.6 mph - N/A   Overcast
10:55 AM 39.2 °F 37.0 °F 39.2 °F 100% 30.12 in 9.0 mi NW 3.5 mph - N/A   Overcast
11:15 AM 39.2 °F - 39.2 °F 100% 30.12 in 9.0 mi Calm Calm - N/A   Overcast
11:35 AM 39.2 °F 35.9 °F 39.2 °F 100% 30.12 in 6.0 mi WNW 4.6 mph - N/A   Overcast
11:55 AM 39.2 °F 35.9 °F 39.2 °F 100% 30.11 in 6.0 mi NNW 4.6 mph - N/A   Overcast
12:15 PM 39.2 °F 35.9 °F 39.2 °F 100% 30.11 in 5.0 mi NW 4.6 mph - N/A   Overcast
12:35 PM 39.2 °F 35.9 °F 39.2 °F 100% 30.11 in 6.0 mi WNW 4.6 mph - N/A   Overcast
12:55 PM 37.4 °F 33.8 °F 37.4 °F 100% 30.11 in 5.0 mi NW 4.6 mph - N/A   Overcast
1:15 PM 37.4 °F 34.9 °F 37.4 °F 100% 30.09 in 2.5 mi NNW 3.5 mph - N/A   Overcast
1:35 PM 37.4 °F 33.8 °F 37.4 °F 100% 30.07 in 2.5 mi North 4.6 mph - N/A   Overcast
1:55 PM 37.4 °F 33.8 °F 37.4 °F 100% 30.09 in 2.5 mi NW 4.6 mph - N/A   Overcast
2:15 PM 37.4 °F 34.9 °F 37.4 °F 100% 30.10 in 2.0 mi NNW 3.5 mph - N/A   Overcast
2:35 PM 37.4 °F 32.8 °F 37.4 °F 100% 30.12 in 4.0 mi NNW 5.8 mph - N/A   Overcast
2:55 PM 37.4 °F 32.8 °F 37.4 °F 100% 30.13 in 2.5 mi North 5.8 mph - N/A   Overcast
3:15 PM 37.4 °F 34.9 °F 37.4 °F 100% 30.13 in 2.0 mi NNW 3.5 mph - N/A   Overcast
3:35 PM 37.4 °F 34.9 °F 37.4 °F 100% 30.12 in 3.0 mi North 3.5 mph - N/A   Overcast
3:55 PM 37.4 °F - 37.4 °F 100% 30.11 in 3.0 mi Calm Calm - N/A   Overcast
4:15 PM 37.4 °F - 37.4 °F 100% 30.12 in 3.0 mi Calm Calm - N/A   Overcast
4:35 PM 37.4 °F - 37.4 °F 100% 30.13 in 3.0 mi Calm Calm - N/A   Overcast
4:55 PM 37.4 °F 34.9 °F 37.4 °F 100% 30.14 in 5.0 mi NW 3.5 mph - N/A   Overcast
5:15 PM 37.4 °F 33.8 °F 35.6 °F 93% 30.17 in 4.0 mi NNW 4.6 mph - N/A   Overcast
5:35 PM 35.6 °F 30.7 °F 35.6 °F 100% 30.16 in 2.5 mi North 5.8 mph - N/A   Overcast
5:55 PM 35.6 °F 29.9 °F 35.6 °F 100% 30.17 in 2.5 mi North 6.9 mph - N/A   Overcast
6:15 PM 35.6 °F 31.7 °F 35.6 °F 100% 30.15 in 4.0 mi NNE 4.6 mph - N/A   Overcast
6:35 PM 35.6 °F 31.7 °F 35.6 °F 100% 30.16 in 4.0 mi NNE 4.6 mph - N/A   Overcast
6:55 PM 35.6 °F 31.7 °F 35.6 °F 100% 30.15 in 3.0 mi NNE 4.6 mph - N/A   Overcast
7:15 PM 35.6 °F 29.9 °F 35.6 °F 100% 30.13 in 4.0 mi NE 6.9 mph - N/A   Overcast
7:35 PM 33.8 °F 27.7 °F 33.8 °F 100% 30.13 in 5.0 mi NE 6.9 mph - N/A   Overcast
7:55 PM 33.8 °F 29.6 °F 33.8 °F 100% 30.14 in 4.0 mi NE 4.6 mph - N/A   Overcast
8:15 PM 33.8 °F 30.8 °F 33.8 °F 100% 30.15 in 4.0 mi NNE 3.5 mph - N/A   Overcast
8:35 PM 33.8 °F 29.6 °F 33.8 °F 100% 30.16 in 4.0 mi NNE 4.6 mph - N/A   Overcast
8:55 PM 33.8 °F 29.6 °F 33.8 °F 100% 30.17 in 3.0 mi NNE 4.6 mph - N/A   Overcast
9:15 PM 33.8 °F 28.6 °F 33.8 °F 100% 30.15 in 2.5 mi NNE 5.8 mph - N/A   Overcast
9:35 PM 33.8 °F 28.6 °F 33.8 °F 100% 30.16 in 2.5 mi NNE 5.8 mph - N/A   Overcast
9:55 PM 32.0 °F 25.6 °F 32.0 °F 100% 30.18 in 2.0 mi North 6.9 mph - N/A   Overcast
10:15 PM 32.0 °F 25.6 °F 32.0 °F 100% 30.19 in 2.0 mi North 6.9 mph - N/A   Overcast
10:35 PM 32.0 °F 24.8 °F 32.0 °F 100% 30.18 in 2.0 mi NNE 8.1 mph - N/A   Overcast
10:55 PM 32.0 °F 24.2 °F 30.2 °F 93% 30.19 in 1.8 mi North 9.2 mph - N/A   Overcast
11:15 PM 30.2 °F 23.4 °F 30.2 °F 100% 30.19 in 4.0 mi North 6.9 mph - N/A   Overcast
11:35 PM 30.2 °F 24.3 °F 30.2 °F 100% 30.20 in 6.0 mi NNE 5.8 mph - N/A   Overcast
11:55 PM 30.2 °F 24.3 °F 30.2 °F 100% 30.19 in 7.0 mi NE 5.8 mph - N/A   Overcast